Regional Weather Roundup
Issued by NWS

Home | Current Version | Previous Version | Text Only | Print | Product List | Glossary On
Versions: 1 2 3 4 5 6 7 8 9 10 11 12 13 14 15 16 17 18 19 20 21 22 23 24 25 26 27 28 29 30 31 32 33 34 35 36 37 38 39 40 41 42 43 44 45 46 47 48 49
000
ASUS46 KPQR 210610
RWROR

OREGON REGIONAL WEATHER ROUNDUP
NATIONAL WEATHER SERVICE PORTLAND OR
1100 PM PDT SAT SEP 20 2014

NOTE: "FAIR" INDICATES FEW OR NO CLOUDS BELOW 12,000 FEET WITH
NO SIGNIFICANT WEATHER AND/OR OBSTRUCTIONS TO VISIBILITY.

ORZ001>013-210700-
NORTHWEST OREGON


CITY           SKY/WX    TMP DP  RH WIND       PRES   REMARKS
ASTORIA        CLEAR     62  55  77 W10       29.82R
6HR MIN TEMP:  62; 6HR MAX TEMP:  86;

NEWPORT        CLOUDY    57  55  94 S14G21    29.92S FOG
PORTLAND       PTCLDY    77  52  41 CALM      29.82R
6HR MIN TEMP:  76; 6HR MAX TEMP:  91;

VANCOUVER WA   CLEAR     71  57  61 W5        29.82S
6HR MIN TEMP:  71; 6HR MAX TEMP:  93;

SCAPPOOSE      CLEAR     65  54  67 W3        29.82S
6HR MIN TEMP:  64; 6HR MAX TEMP:  95;

HILLSBORO      CLEAR     79  48  33 CALM      29.82S
6HR MIN TEMP:  79; 6HR MAX TEMP:  92;

AURORA         CLEAR     78  49  35 NE5       29.82R
6HR MIN TEMP:  77; 6HR MAX TEMP:  94;

MCMINNVILLE    CLEAR     74  51  44 N8        29.82R
6HR MIN TEMP:  74; 6HR MAX TEMP:  95;

SALEM          CLEAR     70  54  56 S5        29.81R
6HR MIN TEMP:  69; 6HR MAX TEMP:  95;

CORVALLIS      CLEAR     70  55  60 NW15      29.84R
EUGENE         CLEAR     68  56  65 SW13      29.86R
6HR MIN TEMP:  68; 6HR MAX TEMP:  90;

$$

ORZ021-028-210700-
SOUTHWEST OREGON


CITY           SKY/WX    TMP DP  RH WIND       PRES   REMARKS
NORTH BEND     CLOUDY    61  61 100 CALM      29.91S
6HR MIN TEMP:  61; 6HR MAX TEMP:  64;

BROOKINGS      CLOUDY    60  59  97 SE9       29.92F FOG
ROSEBURG       CLEAR     76  56  49 N6        29.85R
6HR MIN TEMP:  76; 6HR MAX TEMP:  98;

SEXTON SUMMIT  CLEAR     69  51  52 NW8       30.01S
6HR MIN TEMP:  69; 6HR MAX TEMP:  83;

MEDFORD        CLEAR     76  48  37 CALM      29.85R
6HR MIN TEMP:  76; 6HR MAX TEMP:  99;

$$

ORZ009-041-210700-
COLUMBIA GORGE


CITY           SKY/WX    TMP DP  RH WIND       PRES   REMARKS
TROUTDALE      CLEAR     81  49  32 E15       29.81S
6HR MIN TEMP:  80; 6HR MAX TEMP:  91;

THE DALLES     CLEAR     69  46  43 E6        29.93S
6HR MIN TEMP:  66; 6HR MAX TEMP:  91;

$$

ORZ029>031-042>050-061>064-210700-
EASTERN OREGON


CITY           SKY/WX    TMP DP  RH WIND       PRES   REMARKS
REDMOND        CLEAR     65  44  46 W7        30.05R
6HR MIN TEMP:  65; 6HR MAX TEMP:  84;

BEND           CLEAR     64  45  48 NW6       30.08S
KLAMATH FALLS  PTCLDY    67  46  47 N6        30.01R
6HR MIN TEMP:  65; 6HR MAX TEMP:  89;

LAKEVIEW       PTCLDY    61  34  36 CALM      30.09R
HERMISTON      CLEAR     61  48  62 S7        29.93R
6HR MIN TEMP:  61; 6HR MAX TEMP:  89;

PENDLETON      CLEAR     65  45  48 S7        29.96S
6HR MIN TEMP:  65; 6HR MAX TEMP:  86;

JOHN DAY       CLEAR     70  41  35 CALM      30.07S
MEACHAM        CLEAR     49  42  77 CALM      30.10S
6HR MIN TEMP:  49; 6HR MAX TEMP:  75;

LA GRANDE      CLEAR     61  37  41 W3        30.04R
6HR MIN TEMP:  59; 6HR MAX TEMP:  84;

BAKER CITY     CLEAR     55  42  61 S3        30.08R
6HR MIN TEMP:  51; 6HR MAX TEMP:  83;

BURNS          NOT AVBL
ROME             N/A     67  38  34 NE7       30.06S
6HR MIN TEMP:  67; 6HR MAX TEMP:  88;

ONTARIO        CLEAR     61  44  53 W5        30.00S
6HR MIN TEMP:  60; 6HR MAX TEMP:  87;

$$



USA.gov is the U.S. government's official web portal to all federal, state and local government web resources and services.